{"data":{"norad_id":64938,"intl_designator":"2025-158G","name":"STARLINK-34730","alt_names":[],"object_type":"PAYLOAD","status":"ACTIVE","operator":null,"country":"US","launch_date":"2025-07-27","launch_site_code":"AFWTR","launch_vehicle":null,"mission":null,"orbit_class":"UNKNOWN","rcs_meters":null,"size_class":null,"mass_kg":null,"dimensions":null,"purposes":["comms"],"wikipedia_slug":null,"has_3d_model":false,"image_url":null,"decayed_at":null,"tle_current":{"epoch":"2026-05-25T03:13:09.988032Z","epoch_age_seconds":73672,"freshness":"FRESH","line1":"1 64938U 25158G   26145.13414338  .00005441  00000+0  38078-3 0  9998","line2":"2 64938  97.4507   9.1294 0002352  70.2875 289.8606 15.05660774 46864","mean_motion":15.05660774,"eccentricity":0.0002352,"inclination_deg":97.4507,"raan_deg":9.1294,"arg_perigee_deg":70.2875,"mean_anomaly_deg":289.8606,"bstar":0.00038078,"rev_number":4686,"period_min":95.639072549817,"perigee_km":547.84873098638,"apogee_km":551.10748113227,"semimajor_km":6927.6151060593,"source":"CELESTRAK","updated_at":"2026-05-25T13:38:20.630334Z"}}}